Wind_Speed
14 12 11 10 8 6 5 5 4 3 4 6 7 7 6 4 6 6 6 6 7 7 7 7 7 7 7 7 8 8 8 7 7 7 6 6 5 5 5 5 5 5 5 6
15 13 11 11 10 9 8 7 6 5 6 7 8 8 7 5 6 6 5 4 5 6 6 6 6 6 6 6 7 7 7 7 7 7 6 6 6 6 6 6 6 6 6 6
14 13 13 13 12 11 10 8 8 8 7 8 10 9 10 8 6 5 4 4 4 5 5 5 5 6 6 6 7 7 7 7 7 7 7 7 7 7 7 7 7 7 6 6
16 14 14 15 14 12 11 8 9 10 9 10 11 12 9 8 7 6 5 5 5 4 4 4 5 5 5 6 6 7 7 7 7 7 8 8 7 7 8 8 7 7 7 7
17 15 15 14 14 13 12 10 12 12 12 12 12 11 9 9 8 7 6 6 6 4 4 4 4 5 5 6 7 7 8 7 8 8 8 8 8 8 8 8 8 8 8 8
19 17 15 14 13 13 12 13 15 15 15 16 14 15 12 10 9 9 7 7 6 4 5 6 5 5 6 7 7 8 9 9 9 8 9 9 8 9 9 9 9 9 9 9
20 20 17 16 15 13 14 16 17 17 17 16 15 15 13 12 10 9 8 8 8 6 6 6 6 6 7 8 9 9 9 9 10 10 10 10 10 10 10 10 10 10 10 10
21 20 18 17 16 15 16 18 19 19 17 16 15 16 13 12 11 10 10 10 9 8 7 7 7 8 8 9 9 10 10 10 11 11 11 11 11 11 11 11 11 11 11 11
20 20 19 18 17 17 17 19 18 19 18 18 17 16 15 13 12 12 11 11 10 10 10 10 9 10 10 10 11 11 11 12 11 12 12 12 12 13 13 13 13 12 12 12
20 21 21 21 21 19 19 18 19 20 19 20 19 17 16 13 12 13 13 14 13 13 12 11 11 12 12 13 13 13 13 14 14 14 14 13 14 14 14 15 15 14 14 14
22 23 23 22 22 22 22 21 22 22 21 21 21 19 16 16 15 15 15 15 14 15 13 12 12 13 14 15 15 16 16 16 15 15 15 15 15 16 15 15 16 15 16 16
24 24 25 24 24 24 24 24 24 24 24 23 23 22 19 19 17 16 16 16 17 17 16 15 14 16 16 17 17 17 18 18 17 17 17 18 18 18 17 17 17 17 17 17
26 27 27 27 26 26 26 26 26 27 26 26 26 24 22 21 19 18 17 17 18 18 18 17 16 17 17 18 18 18 19 19 19 19 20 19 19 20 20 19 19 19 19 19
28 29 30 29 27 27 28 28 28 28 28 27 27 26 24 23 21 19 18 18 18 18 18 18 18 17 17 18 19 20 20 20 20 20 21 21 21 22 22 21 21 21 21 21
29 30 30 30 29 29 29 29 29 29 29 28 28 27 25 24 24 22 20 19 18 18 19 19 19 19 19 19 20 20 21 21 21 22 22 22 22 23 24 23 23 22 23 23
32 32 31 31 31 30 30 29 29 28 28 29 28 27 27 26 24 23 23 22 20 19 19 19 19 20 21 21 20 21 21 21 22 23 23 23 24 25 25 25 25 25 25 25
34 34 35 34 33 31 29 29 29 31 29 29 28 27 27 26 24 24 24 23 21 20 19 19 20 20 20 20 20 21 21 21 22 23 23 24 25 25 25 25 25 25 26 26
36 36 35 35 33 33 30 29 30 31 30 30 29 28 27 25 24 24 24 23 23 22 20 20 21 20 20 21 22 22 22 22 22 23 24 24 25 25 25 25 25 25 26 26
36 36 36 35 34 33 30 29 29 30 30 30 30 29 27 26 25 24 22 22 22 21 21 20 20 20 21 21 22 23 22 22 23 24 24 25 26 26 26 25 26 26 26 26
36 36 37 36 36 35 32 30 30 31 32 31 30 29 28 27 26 25 24 24 24 24 23 21 21 21 21 22 23 22 22 23 24 25 26 26 26 26 25 25 26 26 26 26
35 36 37 37 37 36 33 32 31 32 32 31 31 30 29 29 27 26 25 25 25 24 23 22 23 23 23 24 24 23 24 24 25 26 26 26 26 26 26 26 26 26 26 26
35 36 36 37 38 37 34 33 32 32 31 30 30 30 30 30 29 28 26 25 25 24 24 24 24 23 23 23 24 24 24 25 26 26 26 26 26 26 26 26 25 25 26 26
35 36 36 37 37 35 35 35 34 32 31 29 29 29 30 30 29 29 28 27 26 26 25 25 24 25 25 24 24 24 25 25 25 25 26 26 26 26 26 26 26 26 26 26
33 34 35 36 36 36 35 36 35 34 32 30 29 29 29 30 29 28 28 28 27 27 26 26 26 26 26 25 25 25 25 25 26 26 27 26 26 26 26 26 26 26 26 25
33 34 36 37 36 36 36 35 35 33 32 31 30 29 29 30 30 30 29 29 29 29 29 27 26 26 26 26 26 25 25 26 27 27 27 26 25 26 26 26 26 26 26 26
32 33 34 36 35 35 35 35 34 33 32 31 31 30 30 30 30 30 30 29 29 30 29 28 27 27 26 26 26 26 26 26 27 27 26 25 25 26 27 27 26 26 26 27
Wind_Direction
208 209 205 204 202 202 211 232 254 282 301 316 327 330 337 355 3 2 11 23 28 29 26 26 32 39 40 41 39 38 40 41 39 35 29 21 15 6 359 348 338 335 336 332
213 211 206 210 211 216 224 234 250 275 296 312 314 320 326 335 352 352 358 4 14 12 10 15 19 24 25 24 24 24 26 26 23 17 11 6 3 360 354 345 336 331 329 331
218 213 210 216 217 222 223 239 263 275 279 282 294 303 310 311 319 327 337 341 351 350 357 1 1 9 9 7 5 6 6 7 5 2 357 352 350 347 346 341 338 336 329 331
219 216 216 217 220 229 231 242 264 276 272 272 280 290 294 300 305 301 304 309 315 324 338 347 347 351 356 353 349 350 348 350 350 350 347 342 339 339 342 339 329 329 325 324
222 222 222 223 224 231 235 248 259 266 269 264 267 279 276 282 289 298 307 302 299 299 317 320 319 329 338 338 338 341 335 337 337 334 335 335 332 333 334 335 330 323 322 322
224 226 226 227 227 233 238 246 251 256 257 259 261 273 271 278 283 287 297 298 286 276 303 309 308 316 326 327 327 329 331 329 331 330 327 327 325 326 326 324 323 321 319 316
225 226 227 229 230 231 236 245 249 252 254 261 263 268 271 272 277 277 286 294 286 281 293 299 302 304 311 314 316 317 320 320 321 322 322 323 319 316 316 316 317 315 312 311
227 227 230 234 236 237 236 244 248 254 259 263 262 265 266 271 265 266 274 284 286 299 292 295 290 297 303 304 306 309 310 312 312 315 317 321 319 315 309 310 310 307 303 302
234 233 228 231 234 235 238 240 247 255 262 264 268 273 266 267 263 263 269 276 282 291 291 292 291 297 301 303 303 302 304 305 304 306 309 315 315 313 311 308 306 302 299 297
239 238 231 229 230 232 238 243 245 251 258 263 269 275 270 266 272 270 273 283 281 288 287 285 285 289 295 298 298 299 298 300 302 303 303 309 309 306 304 305 305 300 295 295
239 238 233 232 232 234 233 236 242 249 255 260 268 272 271 270 269 270 277 282 281 282 280 280 281 287 293 292 294 295 295 295 297 301 302 305 306 303 302 302 300 297 295 295
238 239 237 235 235 234 234 236 242 247 250 255 263 268 268 271 266 268 274 279 283 280 277 279 282 285 287 288 288 290 292 293 295 298 298 301 300 298 296 296 296 294 293 292
236 239 239 238 239 234 233 236 240 246 249 251 258 262 266 266 268 271 272 274 276 275 273 276 281 284 283 284 285 288 289 291 292 294 297 299 301 298 294 290 291 291 292 291
236 238 240 242 241 240 237 236 239 242 246 250 253 256 260 264 267 272 273 275 272 272 273 278 281 283 282 283 282 285 287 289 290 291 294 299 299 299 296 291 288 288 289 288
239 241 243 244 244 243 241 238 238 239 244 248 252 256 259 264 267 273 277 279 272 271 272 276 280 285 282 281 282 283 285 286 289 291 294 296 297 298 297 293 290 289 289 288
240 241 243 245 247 248 245 240 238 241 244 249 253 256 259 263 266 269 274 278 273 269 269 271 280 286 285 283 284 282 281 283 287 290 293 294 296 298 297 294 291 290 289 288
241 244 245 247 248 249 246 241 238 240 244 249 252 255 259 262 266 268 271 277 279 277 274 277 280 284 285 284 285 285 285 285 287 290 292 295 297 298 297 296 293 292 293 292
242 244 247 248 250 251 249 244 242 243 246 250 253 253 256 260 266 268 265 269 274 274 276 278 279 281 284 284 285 285 285 286 289 292 294 296 297 297 297 296 297 298 298 295
241 244 247 249 250 251 249 248 246 246 247 250 252 254 258 260 263 263 262 268 273 275 278 277 279 281 283 284 284 284 285 286 288 291 293 295 296 297 297 298 298 298 297 296
241 244 247 250 252 252 250 249 248 250 249 249 252 255 258 261 261 263 267 273 277 278 276 276 278 282 284 283 285 283 283 286 288 289 291 293 295 296 295 296 296 297 296 295
241 243 247 249 252 252 252 251 251 252 252 253 254 255 257 258 261 265 267 269 272 274 274 275 276 280 282 282 283 284 284 287 288 288 290 292 294 295 294 294 295 295 295 295
243 244 246 248 250 251 251 251 251 252 252 252 253 254 253 255 258 262 265 267 267 269 272 274 276 279 281 281 283 285 286 288 287 287 289 291 293 295 295 295 296 296 296 294
245 246 247 249 251 251 250 251 252 252 252 252 251 251 251 252 255 258 261 263 264 265 269 271 274 277 278 279 282 285 287 291 291 289 289 290 293 294 295 295 294 294 297 296
246 247 248 250 251 252 251 251 251 250 250 249 249 248 249 250 252 254 257 262 262 263 264 267 272 274 275 279 281 284 287 290 291 289 290 291 292 293 293 294 294 294 294 295
247 248 249 250 251 250 250 251 250 250 249 248 248 248 250 251 253 255 258 260 260 260 261 264 269 271 273 276 280 281 284 289 291 291 291 290 291 293 293 293 293 294 294 293
245 248 249 250 251 251 251 250 250 250 250 250 249 248 251 252 254 255 256 256 257 257 260 263 267 269 272 274 277 280 284 287 290 290 290 290 293 294 295 295 294 294 293 293
Height
5917 5919 5920 5921 5922 5923 5924 5924 5924 5924 5924 5923 5923 5923 5922 5921 5921 5921 5921 5920 5919 5918 5918 5917 5916 5915 5914 5913 5913 5912 5911 5910 5909 5909 5908 5907 5906 5905 5904 5903 5902 5902 5900 5899
5915 5916 5918 5919 5919 5920 5921 5922 5923 5923 5922 5921 5921 5921 5920 5920 5921 5920 5920 5919 5918 5918 5918 5917 5916 5915 5915 5914 5913 5912 5911 5910 5909 5908 5907 5906 5905 5904 5903 5902 5901 5900 5899 5898
5912 5915 5915 5916 5917 5918 5919 5920 5920 5921 5920 5920 5920 5920 5920 5919 5919 5918 5919 5919 5918 5918 5917 5917 5916 5915 5914 5914 5913 5912 5911 5910 5909 5908 5907 5906 5905 5903 5902 5901 5900 5898 5897 5896
5908 5911 5912 5913 5913 5915 5916 5917 5918 5918 5918 5918 5919 5918 5918 5917 5917 5917 5917 5917 5917 5916 5916 5915 5915 5914 5913 5913 5912 5911 5910 5909 5908 5907 5906 5904 5903 5902 5901 5900 5898 5897 5896 5894
5905 5907 5908 5909 5911 5912 5913 5914 5915 5916 5916 5916 5916 5916 5917 5915 5915 5915 5915 5915 5915 5915 5914 5914 5914 5913 5912 5911 5910 5909 5908 5908 5906 5905 5904 5903 5901 5900 5899 5898 5896 5895 5894 5893
5902 5903 5905 5906 5908 5909 5910 5911 5912 5913 5913 5913 5913 5913 5913 5913 5912 5912 5912 5912 5912 5913 5913 5913 5912 5911 5910 5909 5909 5908 5906 5906 5904 5903 5902 5901 5900 5898 5897 5896 5894 5893 5892 5890
5897 5899 5901 5903 5904 5906 5907 5908 5909 5909 5909 5909 5910 5910 5910 5910 5909 5909 5909 5909 5909 5909 5910 5910 5910 5909 5908 5907 5907 5906 5905 5904 5902 5901 5900 5899 5897 5896 5895 5893 5892 5891 5889 5888
5893 5895 5897 5899 5901 5902 5903 5904 5905 5905 5905 5906 5906 5906 5907 5906 5906 5906 5906 5906 5906 5906 5906 5907 5907 5906 5906 5905 5904 5904 5903 5902 5900 5899 5898 5896 5895 5893 5892 5890 5889 5888 5887 5885
5887 5891 5893 5894 5896 5897 5898 5900 5901 5901 5901 5901 5901 5902 5902 5902 5903 5902 5902 5902 5902 5903 5903 5904 5904 5903 5903 5902 5901 5900 5900 5899 5898 5896 5895 5893 5892 5890 5888 5887 5886 5885 5883 5882
5882 5885 5888 5890 5891 5892 5894 5896 5897 5897 5897 5896 5897 5897 5898 5899 5899 5899 5898 5898 5898 5899 5899 5900 5900 5900 5899 5899 5898 5897 5896 5896 5895 5893 5891 5890 5888 5887 5885 5884 5882 5881 5879 5878
5875 5878 5882 5884 5885 5887 5889 5890 5890 5891 5892 5892 5892 5895 5894 5895 5895 5894 5894 5894 5893 5895 5895 5896 5895 5895 5895 5895 5894 5893 5892 5892 5891 5889 5888 5886 5884 5882 5881 5880 5878 5877 5875 5874
5869 5872 5874 5877 5879 5880 5882 5884 5885 5886 5887 5887 5887 5891 5890 5890 5890 5890 5891 5891 5891 5891 5892 5891 5891 5890 5890 5890 5889 5889 5888 5887 5886 5885 5884 5882 5880 5878 5876 5875 5873 5872 5871 5869
5864 5866 5868 5871 5874 5875 5876 5877 5878 5880 5881 5881 5882 5885 5885 5885 5885 5886 5886 5887 5887 5887 5886 5886 5886 5886 5886 5885 5885 5884 5883 5882 5881 5880 5879 5876 5874 5872 5871 5869 5868 5866 5865 5863
5857 5858 5861 5864 5866 5868 5869 5871 5872 5873 5874 5875 5876 5878 5879 5880 5881 5881 5882 5882 5882 5882 5882 5881 5881 5882 5881 5881 5880 5879 5878 5877 5876 5875 5873 5870 5869 5867 5864 5863 5861 5860 5859 5857
5850 5852 5853 5856 5858 5860 5862 5864 5866 5867 5868 5869 5871 5871 5873 5874 5875 5876 5876 5876 5877 5877 5877 5877 5877 5876 5876 5875 5874 5873 5872 5871 5870 5869 5867 5865 5864 5861 5859 5857 5854 5853 5852 5850
5842 5845 5847 5849 5851 5853 5855 5857 5859 5860 5861 5862 5864 5866 5867 5867 5869 5869 5870 5870 5870 5871 5871 5871 5871 5871 5870 5869 5869 5868 5866 5865 5864 5863 5861 5859 5858 5855 5853 5850 5848 5847 5845 5843
5835 5837 5840 5842 5843 5845 5847 5850 5852 5853 5854 5856 5857 5860 5860 5861 5862 5863 5863 5864 5864 5864 5864 5864 5865 5864 5864 5863 5863 5862 5861 5859 5858 5856 5855 5853 5851 5849 5847 5844 5842 5840 5838 5836
5827 5829 5831 5833 5836 5837 5842 5843 5844 5845 5847 5849 5850 5853 5854 5855 5856 5856 5857 5857 5858 5858 5858 5859 5859 5858 5858 5858 5857 5856 5854 5853 5851 5850 5848 5846 5844 5842 5840 5838 5835 5833 5831 5828
5819 5821 5822 5825 5827 5828 5833 5835 5836 5838 5839 5841 5843 5845 5846 5847 5849 5849 5849 5850 5851 5852 5852 5853 5853 5852 5852 5851 5850 5849 5847 5846 5845 5843 5842 5840 5838 5835 5833 5831 5828 5826 5824 5821
5810 5812 5814 5816 5818 5820 5825 5827 5828 5831 5831 5834 5836 5838 5840 5841 5842 5844 5844 5844 5845 5845 5845 5845 5846 5845 5845 5844 5844 5842 5840 5839 5838 5837 5835 5834 5831 5829 5826 5824 5821 5819 5816 5814
5801 5803 5805 5807 5808 5811 5815 5817 5819 5822 5824 5827 5828 5830 5832 5834 5836 5837 5837 5838 5838 5838 5838 5838 5839 5839 5838 5838 5837 5836 5834 5832 5831 5830 5828 5826 5824 5821 5819 5817 5814 5812 5809 5807
5792 5794 5796 5797 5799 5804 5806 5807 5810 5813 5816 5818 5820 5822 5823 5825 5827 5829 5830 5830 5831 5832 5832 5832 5832 5832 5831 5831 5830 5829 5828 5826 5824 5822 5820 5818 5816 5814 5811 5809 5807 5804 5801 5799
5782 5785 5786 5788 5792 5794 5796 5798 5800 5803 5806 5808 5811 5813 5815 5817 5819 5820 5821 5822 5823 5824 5825 5825 5825 5825 5825 5824 5823 5822 5820 5818 5816 5814 5813 5810 5808 5806 5803 5801 5799 5796 5794 5791
5773 5775 5776 5778 5780 5783 5786 5788 5791 5794 5796 5799 5802 5805 5807 5809 5811 5812 5813 5814 5815 5816 5817 5817 5818 5818 5817 5817 5816 5815 5813 5811 5809 5807 5805 5802 5800 5798 5796 5793 5791 5788 5786 5783
5764 5766 5767 5768 5771 5773 5776 5778 5782 5785 5787 5790 5793 5795 5798 5800 5802 5803 5804 5806 5807 5807 5809 5810 5810 5810 5810 5809 5809 5808 5806 5804 5802 5799 5797 5795 5793 5791 5788 5786 5783 5781 5778 5776
5755 5756 5757 5759 5762 5764 5767 5769 5772 5775 5778 5781 5784 5787 5789 5791 5793 5794 5796 5797 5798 5798 5800 5801 5802 5802 5802 5801 5800 5800 5798 5797 5794 5792 5789 5787 5785 5783 5781 5778 5776 5773 5771 5768